Theta_e
327 326 325 323 321 318 321 320 319 321 321 320 321 324 326 322 324 331 324 330 332 333 331 335 336 338 337 333 333 328 326 333 336 336 335 335 337 337 329 318 316 315 314 333 334 329 320 320 325
324 324 325 322 324 325 321 319 321 319 320 320 321 322 324 327 323 322 326 331 332 333 330 335 337 338 337 336 336 329 325 326 334 336 336 336 336 333 323 318 315 314 314 316 328 318 321 320 320
323 323 322 320 323 325 321 319 320 320 322 321 317 319 323 323 325 324 326 330 332 333 331 332 337 339 338 337 336 330 326 324 331 334 336 336 336 334 322 320 317 314 313 315 318 320 322 321 320
323 321 317 317 320 317 318 317 317 319 321 322 319 316 316 319 320 324 327 330 331 333 332 332 334 339 337 336 335 332 328 330 332 333 336 335 336 336 325 322 318 314 312 315 318 321 321 322 322
320 317 316 313 314 316 314 317 319 319 320 320 320 319 314 317 320 325 329 332 333 333 334 333 333 328 331 329 327 328 327 327 328 326 333 334 333 335 331 325 320 316 313 316 319 321 321 321 320
315 312 315 322 314 313 315 318 318 317 317 318 317 315 314 317 317 323 328 332 334 332 334 335 335 327 332 332 328 328 328 328 331 327 323 329 329 333 335 327 323 320 316 314 317 321 320 317 317
311 307 315 312 314 314 312 318 314 315 314 315 317 314 313 316 319 325 329 331 333 332 334 335 335 328 332 332 331 331 330 331 331 330 328 324 324 330 336 328 327 324 320 319 320 321 322 322 319
309 307 310 309 313 313 312 314 316 316 315 316 316 313 313 317 319 326 329 330 332 334 335 335 335 334 328 332 332 332 330 329 332 334 331 327 326 332 335 333 331 328 325 323 323 324 325 327 327
308 306 314 313 308 310 307 312 315 312 309 310 313 314 315 314 317 323 326 328 332 333 333 334 335 335 333 331 332 332 331 329 331 333 331 330 330 335 337 336 333 332 329 327 326 325 326 328 329
303 303 309 304 304 307 307 306 308 308 308 306 309 312 315 314 316 322 325 327 329 332 332 332 332 334 334 333 333 333 333 332 331 332 331 331 329 332 336 335 335 333 332 329 328 327 326 328 329
300 304 304 304 304 305 305 305 306 306 307 308 308 310 312 312 315 320 323 325 326 328 330 330 330 328 328 329 330 327 327 332 332 331 330 329 330 330 330 332 334 335 335 333 330 329 328 328 329
301 301 303 303 306 304 304 305 304 305 305 306 308 308 311 310 315 317 322 322 323 324 324 325 325 325 325 327 328 326 325 326 327 327 328 329 330 330 329 329 328 329 334 335 334 333 331 330 329
298 299 302 304 305 305 305 304 304 303 303 305 306 307 308 311 314 315 319 319 321 321 322 323 323 323 323 323 322 324 324 325 326 325 325 327 327 330 330 329 328 328 329 334 332 332 333 332 331
298 298 300 302 303 303 303 303 303 300 300 303 304 305 307 310 312 313 314 316 317 317 318 319 319 319 319 320 322 322 322 324 321 324 325 324 325 325 326 328 329 328 328 327 328 331 331 331 330
299 298 297 298 300 302 303 301 297 296 299 301 302 304 306 306 307 309 309 309 310 311 312 314 316 318 318 318 319 321 320 322 322 323 322 323 324 324 324 324 325 329 328 328 328 328 328 328 328
297 297 297 298 297 300 302 302 295 297 299 298 299 299 301 301 302 302 302 302 303 303 304 305 307 310 311 314 317 317 319 319 320 320 322 321 323 323 323 324 323 324 328 328 329 329 329 328 328
295 296 295 299 297 298 299 299 292 295 298 295 297 297 298 298 298 298 298 299 299 299 299 300 301 302 304 306 310 314 314 315 318 318 319 320 320 322 322 322 322 323 320 324 325 328 329 329 329
296 295 295 297 297 296 295 293 292 291 293 292 295 296 295 296 296 296 296 297 297 298 298 298 297 298 298 300 302 305 310 313 314 316 317 318 319 319 320 321 322 322 322 318 317 323 325 327 327
294 293 295 296 295 295 293 292 291 291 290 290 292 293 294 294 294 295 295 295 295 295 296 295 295 295 296 296 297 298 301 304 306 308 312 315 317 319 319 319 320 320 321 319 317 318 316 322 321
296 297 297 295 296 295 293 291 290 290 290 289 290 291 292 292 293 293 294 294 294 293 293 293 293 293 293 293 294 295 295 298 301 303 305 309 312 312 313 316 318 319 320 318 317 315 313 317 316
295 296 296 296 296 294 294 295 293 289 289 289 289 289 291 292 293 293 293 294 293 293 292 291 291 291 291 291 291 291 292 292 293 298 301 302 306 306 306 309 313 315 316 316 313 311 309 307 306
298 296 297 298 299 299 295 299 293 290 288 286 287 287 289 290 292 293 294 294 293 293 291 290 290 289 290 290 290 291 290 290 290 290 292 295 297 301 302 307 309 309 311 315 311 311 309 305 301
297 295 297 299 299 299 297 299 291 289 289 287 286 287 288 289 290 292 293 294 293 293 291 290 289 289 289 289 289 290 290 289 289 289 289 290 293 296 294 298 305 305 306 307 309 307 306 304 299
293 298 299 299 299 301 298 298 292 291 284 287 285 286 287 288 290 291 291 293 293 292 291 290 289 288 288 288 288 288 289 289 289 289 289 289 288 289 291 294 296 294 294 298 301 298 303 307 301
295 298 300 300 300 302 290 298 286 283 285 286 286 286 287 287 289 289 291 292 292 291 291 290 290 288 287 287 288 288 288 289 288 288 288 288 288 288 288 288 289 290 289 291 292 295 300 302 299
295 292 300 299 297 293 291 300 289 283 288 287 286 286 287 287 288 289 289 290 290 290 289 290 290 289 287 286 287 288 288 288 288 288 288 288 288 288 288 288 288 288 289 289 290 291 291 292 292
296 296 292 297 289 291 287 280 285 288 288 287 286 286 286 286 287 288 288 288 288 288 288 289 290 289 286 286 286 287 287 288 288 288 288 288 288 288 288 288 288 288 288 288 288 289 289 290 290
293 291 296 297 299 298 283 279 285 286 288 287 286 285 286 286 286 286 287 288 288 289 289 289 289 287 285 285 285 286 286 287 287 287 288 288 287 287 287 288 288 288 288 288 288 288 288 289 289
289 290 291 291 293 293 283 283 276 281 286 286 286 285 286 285 285 285 285 285 286 287 288 288 288 285 284 284 284 285 285 285 286 287 287 287 287 287 287 287 287 288 288 288 288 288 287 288 288
282 284 286 293 292 286 284 281 278 280 284 286 286 285 285 285 285 285 285 285 285 285 285 285 285 284 284 284 284 284 285 285 285 286 286 286 287 287 287 287 287 288 288 287 287 288 288 287 287
Wind_Speed
11 14 13 6 2 3 3 6 1 2 2 2 3 4 11 6 2 2 3 15 20 24 24 24 22 19 20 20 17 18 19 18 15 14 13 15 14 12 9 10 11 11 13 18 16 13 14 15 14
8 11 11 3 2 4 4 5 8 8 2 2 2 4 5 9 14 5 6 14 18 22 24 22 22 18 20 21 19 17 17 17 17 16 15 16 14 11 10 12 12 12 15 17 15 14 15 15 13
9 14 8 3 5 11 4 6 14 6 17 4 0 3 5 2 20 8 7 14 16 17 22 21 22 18 19 19 19 18 16 16 16 16 16 15 14 13 12 13 13 13 14 16 15 14 13 12 13
11 9 2 2 10 6 8 3 5 1 6 9 4 2 3 9 11 12 15 15 16 16 22 20 21 17 18 18 17 16 16 15 16 17 17 16 15 13 12 13 15 15 15 15 14 13 12 12 11
15 4 2 4 6 4 5 3 5 2 2 2 8 3 2 9 14 19 21 20 18 17 19 23 19 18 15 15 16 16 15 16 16 17 18 17 16 15 12 14 15 15 16 16 14 13 11 10 10
7 4 2 19 8 4 5 16 7 6 5 4 2 4 4 9 14 24 24 20 19 20 22 22 25 26 20 16 16 16 17 17 15 15 17 19 18 17 15 16 15 16 17 17 14 12 11 12 13
5 4 7 4 4 7 5 21 4 5 4 6 4 5 4 14 17 24 23 22 18 20 26 23 24 25 27 23 23 23 23 19 15 15 16 15 20 21 18 18 16 16 16 17 15 12 12 13 14
4 2 3 7 6 5 6 11 13 15 11 12 11 6 5 17 24 28 25 24 23 22 24 27 21 23 24 24 25 24 25 25 23 23 20 19 17 19 18 17 17 17 17 16 15 13 12 12 12
7 2 13 10 7 3 2 4 15 7 6 7 9 7 7 14 29 31 27 24 24 24 22 23 25 24 27 26 27 26 25 25 25 22 19 18 20 20 19 17 16 16 16 16 15 14 11 11 9
5 5 8 4 6 3 3 7 4 3 5 6 11 12 15 15 31 34 31 28 25 24 22 22 24 24 26 29 29 27 29 28 28 24 21 19 21 21 19 18 17 17 16 15 16 15 13 11 9
5 8 3 2 5 8 3 3 6 4 5 7 5 14 15 23 34 33 31 26 23 23 23 23 23 22 18 17 19 17 19 31 29 25 23 22 20 20 20 20 18 17 16 16 16 15 14 13 10
4 8 8 4 8 0 2 1 1 5 3 8 11 11 17 31 34 34 30 25 22 21 20 18 17 15 15 15 15 9 4 8 9 9 17 19 21 21 19 18 18 18 18 18 17 17 15 13 10
5 3 5 18 19 13 10 5 4 3 7 7 7 12 20 29 29 25 24 21 19 18 17 17 15 14 13 11 11 10 10 7 2 5 3 3 15 22 23 20 18 18 18 18 18 17 17 16 13
4 10 14 16 12 16 5 3 5 6 9 2 8 13 19 22 22 20 19 17 15 15 13 13 12 10 10 11 11 7 6 6 5 9 6 7 7 11 19 24 24 22 20 18 18 17 17 18 16
7 4 5 6 10 5 11 4 4 10 2 7 10 14 16 14 13 13 12 11 11 11 11 11 11 12 11 8 8 9 8 9 8 8 9 7 8 8 11 16 21 25 24 22 21 20 20 18 18
2 3 6 3 8 6 12 9 4 8 6 11 11 12 13 12 10 9 7 7 7 7 8 9 10 12 12 12 12 10 12 12 13 14 12 9 13 11 11 13 17 20 24 24 24 23 22 22 22
2 4 5 3 8 3 4 4 7 9 12 13 12 11 12 13 11 9 7 5 4 4 4 5 7 8 10 11 12 12 11 10 13 14 13 12 14 16 12 11 15 18 17 22 23 26 26 25 25
6 4 4 6 4 5 4 4 6 13 15 13 13 13 13 12 11 9 7 4 2 2 3 3 3 4 5 6 7 9 12 13 13 14 14 13 13 15 18 13 13 14 18 17 17 22 26 26 25
4 2 5 2 3 6 3 5 5 8 15 15 14 13 11 10 8 7 5 3 2 2 2 2 2 3 4 4 4 4 6 8 10 11 14 13 14 14 14 15 12 13 13 16 17 16 16 19 20
5 6 5 1 4 5 3 4 4 6 5 8 11 12 10 9 8 7 5 4 2 2 3 3 3 3 3 3 4 3 3 5 6 8 9 10 12 13 11 13 9 12 12 14 15 11 10 10 8
6 7 6 4 4 6 7 3 3 3 6 9 11 9 7 5 5 6 5 4 3 2 2 3 3 3 4 4 3 3 3 2 3 3 5 7 9 9 8 10 9 10 10 11 12 11 4 4 6
7 6 8 8 4 3 2 4 4 4 2 5 8 9 8 4 2 4 5 4 2 2 2 2 3 2 2 3 3 3 2 2 2 3 4 3 4 6 7 8 9 8 8 10 8 7 3 4 7
2 1 5 5 10 2 6 1 1 6 3 1 5 6 7 6 2 4 5 9 6 3 2 2 2 2 3 3 3 4 3 3 3 3 3 3 5 3 6 5 7 8 5 10 6 7 6 0 5
3 2 4 3 2 7 8 6 3 5 5 4 2 6 7 8 6 1 6 7 10 5 3 3 1 1 2 3 3 3 3 3 3 3 4 4 4 3 5 5 3 2 2 7 7 6 11 5 8
3 4 2 3 4 3 3 8 3 1 2 5 6 7 8 8 9 7 4 7 12 9 6 4 2 0 0 2 3 3 3 3 3 3 3 4 3 4 4 3 4 4 5 7 7 10 13 10 11
2 3 3 5 4 3 2 4 2 4 7 12 11 9 10 10 12 11 9 9 11 10 7 4 2 1 0 1 2 4 4 4 3 3 3 2 3 3 4 4 4 5 8 7 8 10 10 11 13
2 4 2 2 2 3 1 5 5 4 6 9 10 11 12 13 9 11 10 9 8 8 6 3 1 1 1 2 2 2 3 3 3 3 2 2 2 2 3 3 4 5 6 5 6 8 9 10 10
2 2 1 2 3 4 2 3 3 5 6 6 7 9 11 12 14 8 5 5 4 4 5 5 4 3 3 4 4 4 3 4 3 3 3 2 2 2 2 2 2 3 4 4 5 5 7 7 8
4 3 3 1 2 2 2 5 5 6 4 6 7 9 10 12 13 13 14 11 7 2 3 5 5 4 4 5 5 5 4 4 4 3 3 3 3 2 2 2 2 2 2 3 4 5 5 6 6
2 1 2 1 2 3 3 3 1 3 5 8 8 8 8 9 10 12 13 14 14 11 8 5 3 3 4 5 5 5 5 5 4 5 5 4 4 4 4 3 3 3 3 2 3 4 4 5 6
Wind_Direction
191 202 209 196 66 76 236 245 245 306 276 237 173 168 206 156 224 225 293 180 173 179 177 174 170 166 167 169 172 167 165 168 164 162 157 150 147 139 127 115 118 124 127 124 127 121 110 112 117
181 174 174 174 203 205 228 224 231 209 225 359 159 116 134 217 231 277 165 181 177 180 178 175 171 172 168 171 169 169 167 171 168 163 161 158 156 142 130 123 120 124 132 136 130 121 113 108 107
176 161 156 170 201 224 216 204 234 230 226 265 203 193 174 216 217 216 199 182 182 186 177 176 174 177 171 169 171 171 170 168 166 169 164 164 159 144 135 128 123 125 133 137 133 122 114 103 98
177 181 94 173 231 261 180 231 226 162 219 219 217 189 215 184 177 191 184 166 181 188 182 178 183 178 177 173 177 178 177 170 168 175 172 166 162 151 138 132 127 126 134 137 134 126 116 107 102
184 159 210 253 240 248 244 210 126 147 117 188 205 238 209 182 165 178 175 168 175 191 185 177 184 185 183 183 187 187 185 181 186 181 180 176 167 161 152 139 132 128 133 137 139 130 118 110 110
169 154 194 233 218 218 254 238 232 253 272 281 192 165 231 194 181 172 168 168 177 188 182 191 184 182 178 175 177 182 183 184 188 186 189 184 176 171 166 151 142 134 135 137 139 133 119 110 115
159 121 222 260 270 225 207 238 204 217 182 234 234 156 222 196 186 174 170 178 186 191 178 191 199 189 184 182 180 181 175 172 178 183 187 180 183 175 173 161 153 147 143 142 142 139 125 115 114
200 170 234 219 212 258 210 223 238 227 258 242 230 215 222 204 186 177 176 179 174 180 180 173 200 205 203 194 188 190 187 182 177 178 175 182 176 177 177 174 167 164 157 152 149 151 140 131 123
170 214 238 226 161 210 229 215 229 234 207 186 194 218 224 198 187 182 182 181 181 176 177 176 183 206 205 204 198 194 197 192 189 184 185 178 171 173 175 178 179 176 172 168 162 160 160 151 139
169 199 229 191 180 221 226 182 231 198 208 211 222 221 231 202 189 185 186 184 180 179 178 181 174 188 198 208 198 202 195 194 192 189 181 173 176 178 177 181 187 190 186 179 175 174 174 173 161
203 234 221 200 223 216 226 219 227 189 241 246 240 233 214 192 191 189 190 191 184 178 182 178 181 173 179 187 190 179 167 177 192 190 189 180 180 183 187 186 190 193 193 191 187 189 188 188 183
226 239 231 248 240 81 229 238 225 231 258 270 251 257 209 185 188 192 192 193 191 187 185 187 183 185 173 172 174 165 145 119 130 177 197 191 180 180 184 190 194 200 202 198 194 195 196 198 194
236 226 230 240 249 262 269 290 284 343 318 288 225 197 191 185 188 190 194 197 199 203 202 203 210 204 207 198 182 181 208 176 322 213 216 270 220 184 185 189 190 192 201 203 203 202 197 192 202
240 223 238 251 248 239 212 256 181 25 353 66 151 161 168 176 181 182 185 196 200 209 209 217 223 228 210 200 210 193 194 238 297 262 292 225 288 241 200 189 192 194 195 205 206 204 208 204 206
251 271 300 240 213 229 180 193 88 348 52 105 113 135 149 160 170 182 189 199 211 222 230 236 236 240 242 240 217 212 209 226 229 259 238 285 282 279 276 219 197 196 196 198 205 208 208 208 213
255 174 233 258 173 227 171 223 17 9 140 104 109 120 132 139 149 153 166 183 197 213 228 244 246 249 253 247 234 213 231 218 223 227 231 275 275 260 258 274 249 207 200 199 204 207 208 207 211
318 228 217 266 189 126 168 172 358 43 127 96 107 114 120 126 131 135 144 158 180 198 214 236 241 241 244 247 243 237 226 236 236 240 236 227 262 264 258 256 265 246 230 203 204 208 210 210 214
225 220 235 212 187 57 88 88 28 43 99 91 93 107 115 121 122 129 133 139 160 206 232 238 242 230 231 232 238 237 234 233 237 236 240 233 236 263 269 252 261 268 253 238 216 210 210 211 214
152 193 229 252 58 89 58 95 37 43 64 67 85 95 105 114 120 127 122 108 96 125 174 191 204 214 215 215 216 211 219 227 238 235 237 243 237 244 266 257 259 259 275 258 242 228 223 211 213
192 195 224 94 33 94 116 79 52 40 54 65 81 82 93 118 134 135 123 98 68 86 129 154 171 190 207 206 209 212 218 211 226 239 243 236 238 238 245 243 240 262 270 272 259 236 237 222 240
214 206 195 186 109 69 129 109 159 63 73 67 64 72 87 113 143 158 156 122 82 82 104 136 163 182 190 204 230 247 233 264 243 243 247 246 232 241 244 240 244 262 279 297 267 263 255 300 279
232 203 206 142 146 212 188 227 203 156 95 40 38 34 39 58 146 198 197 171 104 77 104 133 159 191 209 207 224 242 250 277 289 274 270 277 264 257 256 247 237 238 258 259 280 268 253 321 342
251 234 175 188 176 109 190 99 172 138 184 148 27 31 33 28 344 225 217 203 186 138 133 158 169 189 215 238 247 249 247 239 260 271 279 291 292 294 283 251 233 248 263 279 257 301 327 254 291
344 105 59 67 126 218 188 180 216 185 191 152 69 52 47 37 29 237 218 200 189 172 142 140 145 207 205 208 213 236 243 238 255 260 278 276 268 270 266 268 243 240 262 265 275 273 258 244 263
92 125 178 194 193 214 322 183 214 253 144 129 125 78 63 65 61 61 130 172 177 174 157 128 109 63 210 192 199 206 220 216 210 211 216 231 242 251 253 255 235 237 242 236 235 247 253 243 238
83 164 199 197 189 204 22 180 162 220 129 116 102 94 77 83 77 76 84 126 158 166 163 148 116 70 93 184 182 190 197 199 205 205 208 238 264 275 284 282 265 242 243 235 235 229 228 228 233
145 216 198 120 115 90 111 332 338 143 117 107 100 90 77 69 75 82 94 111 134 156 170 174 168 164 157 172 170 172 182 190 191 205 209 205 230 258 277 272 269 263 259 244 244 241 235 233 232
327 1 162 191 206 216 345 269 226 179 142 124 107 96 88 82 70 79 96 105 130 174 203 214 211 203 184 176 175 181 189 198 199 194 207 220 221 224 239 245 244 259 274 274 258 250 251 248 247
346 5 6 352 11 170 148 263 217 182 134 135 122 113 94 83 78 72 67 76 80 143 173 181 187 199 198 192 192 195 199 205 205 208 211 221 243 261 271 281 288 277 264 269 274 270 262 260 259
70 47 316 55 326 52 139 281 288 185 127 119 102 97 100 97 91 84 79 75 73 79 88 110 147 182 199 209 218 223 225 227 225 225 227 235 246 262 276 280 281 284 290 285 273 276 283 284 276